Regional Weather Roundup
Issued by NWS

Home | Current Version | Previous Version | Text Only | Print | Product List | Glossary Off
Versions: 1 2 3 4 5 6 7 8 9 10 11 12 13 14 15 16 17 18 19 20 21 22 23 24 25 26 27 28 29 30 31 32 33 34 35 36 37 38 39 40 41 42 43 44 45 46 47 48 49 50

000
ASUS45 KCYS 202010
RWRWY

WYOMING REGIONAL WEATHER ROUNDUP
NATIONAL WEATHER SERVICE CHEYENNE WY
100 PM MST FRI JAN 20 2017

NOTE:  "FAIR" INDICATES FEW OR NO CLOUDS BELOW 12,000 FEET
WITH NO SIGNIFICANT WEATHER AND/OR OBSTRUCTIONS TO VISIBILITY.

WYZ001-202100-
YELLOWSTONE NATIONAL PARK

CITY           SKY/WX    TMP DP  RH WIND       PRES   REMARKS
LK YELLOWSTONE   N/A     22  18  85 CALM      29.43F
W YELLOWSTONE  NOT AVBL

$$
WYZ002>013-054>058-071-098>099-202100-
NORTHERN WYOMING

CITY           SKY/WX    TMP DP  RH WIND       PRES   REMARKS
JACKSON        MOSUNNY   25  23  93 CALM      29.46F
CODY           FAIR      38  18  44 NW8       29.40F WCI  32
GREYBULL       FAIR      35  26  69 CALM      29.43F
WORLAND        FAIR      35  30  82 NW5       29.42F WCI  31
SHERIDAN       CLOUDY    36  32  85 S5        29.40F WCI  32
BUFFALO        CLOUDY    34  30  85 NW10      29.41F WCI  26
GILLETTE       CLOUDY    34  32  92 W8        29.39F WCI  27
HULETT         CLOUDY    34  32  93 W5        29.38F WCI  30
NEWCASTLE      FAIR      32  30  93 NW18      29.36F WCI  20

$$
WYZ014>020-022>026-101>103-202100-
CENTRAL WYOMING

CITY           SKY/WX    TMP DP  RH WIND       PRES   REMARKS
BIG PINEY      FAIR       7   4  87 CALM      29.48F
PINEDALE       FAIR      12  10  92 CALM      29.49F
DUBOIS         NOT AVBL
LANDER         FAIR      33  20  58 CALM      29.41F
RIVERTON       FAIR      23  17  78 CALM      29.43F
CASPER         CLOUDY    33  29  85 SW14      29.42F WCI  23
DOUGLAS        LGT SNOW  34  31  88 NW17      29.40F FOG     WCI  23

$$
WYZ021-027>030-104>119-202100-
SOUTHERN WYOMING

CITY           SKY/WX    TMP DP  RH WIND       PRES   REMARKS
EVANSTON       FAIR      25  17  72 CALM      29.45F
ROCK SPRINGS   CLOUDY    23  18  81 CALM      29.49F HAZE
RAWLINS        FAIR      27  18  69 W18       29.48S WCI  14
LARAMIE        FAIR      29  20  69 SW5       29.39F WCI  24
CHEYENNE       CLOUDY    38  19  46 NW17G24   29.37F WCI  28
TORRINGTON     CLOUDY    39  30  70 NW15G28   29.37F WCI  31

$$



USA.gov is the U.S. government's official web portal to all federal, state and local government web resources and services.